McCook, NE

5:11 AM CST on December 09, 2019 (GMT -0600)
McCook Municipal

Weather History for KMCK - September, 2019

Change the Weather History Date:

Monday, September 23, 2019

  Actual Average Record
Temperature  
Mean Temperature 69 °F 61 °F  
Max Temperature 84 °F 76 °F 98 °F (1954)
Min Temperature 53 °F 46 °F 29 °F (1909)
Cooling Degree Days 4    
Growing Degree Days 19 (Base 50)    
Moisture  
Dew Point 53 °F    
Average Humidity 59    
Maximum Humidity 80    
Minimum Humidity 38    
Precipitation  
Precipitation 0.00 in 0.05 in 1.23 in (2017)
Month to date precipitation 0.64 1.11  
Year to date precipitation 17.97 18.82  
Sea Level Pressure  
Sea Level Pressure 29.98 in    
Wind  
Wind Speed 7 mph ()    
Max Wind Speed 18 mph    
Max Gust Speed 26 mph    
Visibility 10.0 miles    
Events      
T = Trace of Precipitation, MM = Missing Value Source: Averaged Metar Reports

Daily Weather History Graph

Daily Weather History Graph

Search for Another Location

Airport or City:

Astronomy

Sep. 23, 2019 Rise Set
Actual Time 7:30 AM CDT 7:38 PM CDT
Civil Twilight 7:03 AM CDT 8:05 PM CDT
Nautical Twilight 6:31 AM CDT 8:36 PM CDT
Astronomical Twilight 5:59 AM CDT 9:09 PM CDT
Moon 1:15 AM CDT (9/23) 4:33 PM CDT (9/23)
Length of Visible Light 13h 01m
Length of Day
12h 07m
Waning Crescent, 33% of the Moon is Illuminated
Sep 23
Waning Crescent
Sep 28
New
Oct 5
First Quarter
Oct 13
Full
Oct 21
Last Quarter

Hourly Weather History & Observations

Time (CDT) Temp. Heat Index Dew Point Humidity Pressure Visibility Wind Dir Wind Speed Gust Speed Precip Events Conditions
12:53 AM 57.0 °F - 48.9 °F 74% 30.03 in 10.0 mi SW 5.8 mph - N/A   Clear
1:53 AM 55.0 °F - 48.9 °F 80% 30.03 in 10.0 mi WSW 5.8 mph - N/A   Clear
2:53 AM 57.0 °F - 48.9 °F 74% 30.02 in 10.0 mi WSW 3.5 mph - N/A   Clear
3:53 AM 55.0 °F - 48.9 °F 80% 30.01 in 10.0 mi WSW 3.5 mph - N/A   Clear
4:53 AM 55.0 °F - 48.9 °F 80% 30.02 in 10.0 mi WSW 8.1 mph - N/A   Clear
5:53 AM 55.0 °F - 48.9 °F 80% 30.01 in 10.0 mi WSW 9.2 mph - N/A   Clear
6:53 AM 55.0 °F - 48.0 °F 77% 30.03 in 10.0 mi West 6.9 mph - N/A   Clear
7:53 AM 54.0 °F - 48.0 °F 80% 30.05 in 10.0 mi West 5.8 mph - N/A   Clear
8:53 AM 59.0 °F - 48.9 °F 69% 30.06 in 10.0 mi WSW 6.9 mph - N/A   Clear
9:53 AM 64.9 °F - 52.0 °F 63% 30.06 in 10.0 mi SW 9.2 mph - N/A   Clear
10:53 AM 73.0 °F - 54.0 °F 51% 30.05 in 10.0 mi SW 15.0 mph - N/A   Clear
11:53 AM 77.0 °F - 55.0 °F 47% 30.03 in 10.0 mi SSW 18.4 mph 23.0 mph N/A   Clear
12:53 PM 80.1 °F 80.2 °F 55.9 °F 43% 30.01 in 10.0 mi South 10.4 mph - N/A   Clear
1:53 PM 82.9 °F 82.1 °F 55.9 °F 39% 29.98 in 10.0 mi SSW 16.1 mph 26.5 mph N/A   Clear
2:53 PM 82.9 °F 82.1 °F 55.9 °F 39% 29.94 in 10.0 mi SSW 11.5 mph 25.3 mph N/A   Clear
3:53 PM 84.0 °F 83.0 °F 55.9 °F 38% 29.93 in 10.0 mi South 13.8 mph - N/A   Clear
4:53 PM 82.9 °F 82.4 °F 57.0 °F 41% 29.92 in 10.0 mi South 12.7 mph 20.7 mph N/A   Clear
5:53 PM 82.9 °F 82.1 °F 55.9 °F 39% 29.92 in 10.0 mi South 11.5 mph - N/A   Clear
6:53 PM 80.1 °F 80.4 °F 57.0 °F 45% 29.91 in 10.0 mi SSE 5.8 mph - N/A   Clear
7:53 PM 73.9 °F - 57.0 °F 55% 29.92 in 10.0 mi ESE 6.9 mph - N/A   Clear
8:53 PM 72.0 °F - 55.9 °F 57% 29.92 in 10.0 mi SE 8.1 mph - N/A   Clear
9:53 PM 71.1 °F - 54.0 °F 55% 29.92 in 10.0 mi SE 6.9 mph - N/A   Clear
10:53 PM 70.0 °F - 53.1 °F 55% 29.91 in 10.0 mi SE 6.9 mph - N/A   Clear
11:53 PM 66.9 °F - 55.0 °F 66% 29.89 in 10.0 mi East 4.6 mph - N/A   Clear